カタログに戻る

ONEWEB-0358

運用中通信PO
NORAD 49284·PAYLOAD·🇬🇧 United Kingdom

打ち上げ Oct 14, 2021 から Vostochny Cosmodrome

Loading…

次のパス (今後24時間)

TLE

最新Source: CelesTrak SupGP

元期: Sep 14, 2026, 16:07 UTC

1 49284C 21090F   26257.67202961 -.00002731  00000+0 -67254-2 0  2571
2 49284  87.9142 256.5925 0002035  93.7366 345.0158 13.20773342    17

AllMySatでONEWEB-0358をリアルタイム追跡

Download on the App Store